(292339) = 2004 FL61 = 2006 SR192

Discovered at Mount Lemmon on 2006-09-26 by Mt. Lemmon Survey.

Orbit

Orbit type: Main Belt

Note: WebGL enabled browser required.

epoch2023-02-25.0
epoch JD2460000.5
perihelion date2021-05-04.94258
perihelion JD2459339.44258
argument of perihelion (°)246.53649
ascending node (°)153.91878
inclination (°)5.78838
eccentricity0.0151830
perihelion distance (AU)2.7782862
Tisserand w.r.t. Jupiter3.3
ΔV w.r.t. Earth (km/sec)10.5
semimajor axis (AU)2.8211193
mean anomaly (°)137.50258
mean daily motion (°/day)0.20800400
aphelion distance (AU)2.864
period (years)4.74
P-vector [x]0.75885641
P-vector [y]0.62825831
P-vector [z]0.17154725
Q-vector [x]-0.64974680
Q-vector [y]0.71242423
Q-vector [z]0.26510528
absolute magnitude16.48
phase slope0.15
uncertainty0
referenceMPO 745323
observations used334
oppositions16
arc length (days)7890
first opposition used2001
last opposition used2023
residual rms (arc-secs)0.73
perturbers coarse indicatorM-v
perturbers precise indicator003Ek
first observation date used2001-09-21.0
last observation date used2023-04-29.0
computer nameMPCLINUX
JD of orbit computation2456819.533881
perihelion JD uncertainty (days)7.8274E-04
argument of perihelion uncertainty (°)1.6760E-04
ascending node uncertainty (°)5.8484E-05
inclination uncertainty (°)4.4090E-06
eccentricity uncertainty 5.6234E-08
perihelion distance uncertainty (AU)1.5888E-07
Minimum Orbit Intersection Distances (in AU)
for orbit epoch: 2460000.5, reference: E2023-HO8
Mercury2.39145
Venus2.05548
Earth1.78489
Mars1.17273
Jupiter2.17048
Saturn6.2785
Uranus15.5953
Neptune27.0751

Observations

351 total observations over interval: 2001 09 21.20151 – 2023 04 29.154093
These data are available for download (format description).

Date (UT) J2000 RA J2000 Dec Magn Location Ref
2001 09 21.20151 22 59 34.79 -08 46 59.5 20.7   704 – Lincoln Laboratory ETS, New Mexico MPS 337371
2001 09 21.21573 22 59 34.14 -08 47 05.7 20.3   704 – Lincoln Laboratory ETS, New Mexico MPS 337371
2001 09 21.24435 22 59 32.91 -08 47 14.8 20.0   704 – Lincoln Laboratory ETS, New Mexico MPS 337371
2004 03 19.33635 12 09 54.87 +03 11 28.2 19.7   704 – Lincoln Laboratory ETS, New Mexico MPS 103985
2004 03 19.36924 12 09 53.41 +03 11 42.2 20.2   704 – Lincoln Laboratory ETS, New Mexico MPS 103985
2004 03 19.38006 12 09 52.86 +03 11 47.3 20.1   704 – Lincoln Laboratory ETS, New Mexico MPS 103985
2004 03 22.34281 12 07 36.13 +03 32 10.4 19.8   704 – Lincoln Laboratory ETS, New Mexico MPS 103985
2004 03 22.35362 12 07 35.72 +03 32 15.0 20.5   704 – Lincoln Laboratory ETS, New Mexico MPS 103985
2004 03 22.37536 12 07 34.62 +03 32 23.4 20.3   704 – Lincoln Laboratory ETS, New Mexico MPS 103985
2004 04 10.15992 11 54 07.17 +05 25 42.7 20.1   644 – Palomar Mountain/NEAT MPS 190542
2004 04 10.18083 11 54 06.37 +05 25 48.8 19.8   644 – Palomar Mountain/NEAT MPS 190542
2004 04 10.20228 11 54 05.56 +05 25 56.0 19.8   644 – Palomar Mountain/NEAT MPS 190542
2006 09 18.27991 01 01 08.92 +01 13 07.0 21.0 V 691 – Steward Observatory, Kitt Peak-Spacewatch MPS 190542
2006 09 18.28982 01 01 08.48 +01 13 03.0 21.2 V 691 – Steward Observatory, Kitt Peak-Spacewatch MPS 190542
2006 09 18.29973 01 01 08.08 +01 12 58.7 20.7 V 691 – Steward Observatory, Kitt Peak-Spacewatch MPS 190542
2006 09 26.30497 00 55 39.18 +00 19 36.6 20.1 V G96 – Mt. Lemmon Survey MPS 181419
2006 09 26.31236 00 55 38.78 +00 19 34.2 19.9 V G96 – Mt. Lemmon Survey MPS 181419
2006 09 26.31985 00 55 38.49 +00 19 30.4 20.2 V G96 – Mt. Lemmon Survey MPS 181419
2006 09 26.32744 00 55 38.13 +00 19 27.2 20.3 V G96 – Mt. Lemmon Survey MPS 181419
2006 09 26.33603 00 55 37.77 +00 19 24.0 20.3 V G96 – Mt. Lemmon Survey MPS 181419
2006 09 26.35093 00 55 37.09 +00 19 18.1 20.1 V G96 – Mt. Lemmon Survey MPS 181419
2006 09 26.35836 00 55 36.76 +00 19 15.0 20.3 V G96 – Mt. Lemmon Survey MPS 181419
2006 09 27.27081 00 54 56.83 +00 13 04.4 20.3 V 691 – Steward Observatory, Kitt Peak-Spacewatch MPS 181419
2006 09 27.28069 00 54 56.36 +00 13 00.6 20.3 V 691 – Steward Observatory, Kitt Peak-Spacewatch MPS 181419
2006 09 27.29062 00 54 55.91 +00 12 56.7 20.3 V 691 – Steward Observatory, Kitt Peak-Spacewatch MPS 181419
2006 10 11.22669 00 44 20.15 -01 18 20.7 20.5 R 644 – Palomar Mountain/NEAT MPS 190542
2006 10 11.24724 00 44 19.19 -01 18 28.5 21.0 R 644 – Palomar Mountain/NEAT MPS 190542
2006 10 11.26772 00 44 18.24 -01 18 35.2 20.5 R 644 – Palomar Mountain/NEAT MPS 190542
2008 01 11.31164 07 27 25.41 +15 43 01.7 19.8 V G96 – Mt. Lemmon Survey MPS 233429
2008 01 11.31924 07 27 24.98 +15 43 03.1 20.0 V G96 – Mt. Lemmon Survey MPS 233429
2008 01 11.32681 07 27 24.55 +15 43 04.5 20.0 V G96 – Mt. Lemmon Survey MPS 233429
2008 01 11.33447 07 27 24.12 +15 43 06.1 20.2 V G96 – Mt. Lemmon Survey MPS 233429
2009 03 29.25366 13 55 16.62 -04 57 38.3   691 – Steward Observatory, Kitt Peak-Spacewatch MPS 282583
2009 03 29.27135 13 55 15.95 -04 57 32.0   691 – Steward Observatory, Kitt Peak-Spacewatch MPS 282583
2009 03 29.28904 13 55 15.24 -04 57 25.3   691 – Steward Observatory, Kitt Peak-Spacewatch MPS 282583
2009 04 05.25914 13 50 28.87 -04 15 17.2   691 – Steward Observatory, Kitt Peak-Spacewatch MPS 283578
2009 04 05.27689 13 50 28.06 -04 15 10.1   691 – Steward Observatory, Kitt Peak-Spacewatch MPS 283578
2009 04 05.29463 13 50 27.24 -04 15 04.0   691 – Steward Observatory, Kitt Peak-Spacewatch MPS 283578
2010 07 06.32679 20 13 06.34 -14 16 26.2 19.1 V G96 – Mt. Lemmon Survey MPS 337371
2010 07 06.33140 20 13 06.06 -14 16 27.4 20.4 V G96 – Mt. Lemmon Survey MPS 337371
2010 07 06.33612 20 13 05.84 -14 16 28.3 20.4 V G96 – Mt. Lemmon Survey MPS 337371
2010 07 06.34081 20 13 05.62 -14 16 29.4 20.4 V G96 – Mt. Lemmon Survey MPS 337371
2010 07 06.34550 20 13 05.41 -14 16 30.1 20.6 V G96 – Mt. Lemmon Survey MPS 337371
2010 08 05.370331 19 48 48.873 -16 15 25.91 21.03 g F51 – Pan-STARRS 1, Haleakala MPS 365617
2010 08 05.381368 19 48 48.361 -16 15 28.67 20.96 g F51 – Pan-STARRS 1, Haleakala MPS 365617
2011 09 26.42188 02 54 22.73 +09 28 43.8 20.9 V 691 – Steward Observatory, Kitt Peak-Spacewatch MPS 394159
2011 09 26.43963 02 54 22.42 +09 28 39.2 20.9 V 691 – Steward Observatory, Kitt Peak-Spacewatch MPS 394159
2011 09 26.45738 02 54 22.09 +09 28 35.3 20.7 V 691 – Steward Observatory, Kitt Peak-Spacewatch MPS 394159
2011 09 30.42748 02 53 02.63 +09 10 56.4 20.9 V 691 – Steward Observatory, Kitt Peak-Spacewatch MPS 394159
2011 09 30.44525 02 53 02.14 +09 10 51.5 21.2 V 691 – Steward Observatory, Kitt Peak-Spacewatch MPS 394159
2011 09 30.46303 02 53 01.77 +09 10 46.5 21.0 V 691 – Steward Observatory, Kitt Peak-Spacewatch MPS 394159
2011 10 23.35465 02 39 03.52 +07 11 54.1 20.2 V G96 – Mt. Lemmon Survey MPS 398054
2011 10 23.36505 02 39 03.06 +07 11 50.5 20.3 V G96 – Mt. Lemmon Survey MPS 398054
2011 10 23.37548 02 39 02.52 +07 11 47.3 20.1 V G96 – Mt. Lemmon Survey MPS 398054
2011 10 23.38584 02 39 02.01 +07 11 44.0 20.2 V G96 – Mt. Lemmon Survey MPS 398054
2012 10 20.47167 09 00 25.95 +13 15 30.0 22.4 V G96 – Mt. Lemmon Survey MPS 439387
2012 10 20.48188 09 00 26.67 +13 15 27.4 22.1 V G96 – Mt. Lemmon Survey MPS 439387
2012 10 20.49204 09 00 27.32 +13 15 24.6 21.6 V G96 – Mt. Lemmon Survey MPS 439387
2012 10 20.50221 09 00 27.97 +13 15 22.3 22.1 V G96 – Mt. Lemmon Survey MPS 439387
2013 01 08.61001 09 30 51.718 +11 09 55.24 20.4 r F51 – Pan-STARRS 1, Haleakala MPS 450815
2013 01 08.62086 09 30 51.380 +11 09 57.66 20.6 r F51 – Pan-STARRS 1, Haleakala MPS 450815
2013 01 10.34635 09 29 56.50 +11 16 06.7   691 – Steward Observatory, Kitt Peak-Spacewatch MPS 450815
2013 01 10.36404 09 29 55.91 +11 16 10.2   691 – Steward Observatory, Kitt Peak-Spacewatch MPS 450815
2013 01 10.38173 09 29 55.31 +11 16 14.1   691 – Steward Observatory, Kitt Peak-Spacewatch MPS 450815
2013 01 19.21441 09 24 17.81 +11 53 42.4 20.9 g W84 – Cerro Tololo-DECam MPS 1248146
2013 01 19.22508 09 24 17.34 +11 53 45.5   W84 – Cerro Tololo-DECam MPS 1248146
2013 01 19.23219 09 24 17.02 +11 53 47.5 20.4 r W84 – Cerro Tololo-DECam MPS 1248146
2013 01 19.23426 09 24 16.93 +11 53 48.0   W84 – Cerro Tololo-DECam MPS 1248146
2013 01 19.23633 09 24 16.84 +11 53 48.6   W84 – Cerro Tololo-DECam MPS 1248146
2013 01 19.23838 09 24 16.75 +11 53 49.2   W84 – Cerro Tololo-DECam MPS 1248146
2013 01 19.24044 09 24 16.66 +11 53 49.8   W84 – Cerro Tololo-DECam MPS 1248146
2013 01 19.24251 09 24 16.56 +11 53 50.4   W84 – Cerro Tololo-DECam MPS 1248146
2013 01 19.26667 09 24 15.49 +11 53 57.3 20.3 z W84 – Cerro Tololo-DECam MPS 1279097
2013 01 19.27279 09 24 15.21 +11 53 59.0   W84 – Cerro Tololo-DECam MPS 1279097
2013 01 19.27889 09 24 14.95 +11 54 00.7   W84 – Cerro Tololo-DECam MPS 1279097
2013 01 19.28501 09 24 14.66 +11 54 02.5   W84 – Cerro Tololo-DECam MPS 1279097
2013 01 19.29112 09 24 14.40 +11 54 04.3   W84 – Cerro Tololo-DECam MPS 1279097
2013 01 19.29725 09 24 14.12 +11 54 06.0   W84 – Cerro Tololo-DECam MPS 1279097
2013 01 19.35170 09 24 11.87 +11 54 17.2 20.6 V 691 – Steward Observatory, Kitt Peak-Spacewatch MPS 453129
2013 01 19.35915 09 24 11.36 +11 54 23.4   W84 – Cerro Tololo-DECam MPS 1248146
2013 01 19.36939 09 24 11.07 +11 54 21.5 20.7 V 691 – Steward Observatory, Kitt Peak-Spacewatch MPS 453129
2013 01 19.38707 09 24 10.25 +11 54 26.9 20.6 V 691 – Steward Observatory, Kitt Peak-Spacewatch MPS 453129
2013 01 21.52691 09 22 36.169 +12 04 51.01 20.0 i F51 – Pan-STARRS 1, Haleakala MPS 453129
2013 01 21.53913 09 22 35.600 +12 04 54.55 20.0 i F51 – Pan-STARRS 1, Haleakala MPS 453129
2013 02 08.57687 09 07 44.59 +13 44 05.4 19.3 R D29 – Purple Mountain Observatory, XuYi Station MPS 456103
2013 02 08.59376 09 07 43.75 +13 44 10.8 19.9 R D29 – Purple Mountain Observatory, XuYi Station MPS 456103
2013 02 08.61064 09 07 42.87 +13 44 16.6 20.0 R D29 – Purple Mountain Observatory, XuYi Station MPS 456103
2014 04 21.26836 15 29 24.46 -10 29 26.5 20.9 V 691 – Steward Observatory, Kitt Peak-Spacewatch MPS 512292
